Weather History for Holland, MI

Change the Weather History Date:

Sunday, February 24, 2013

  Actual Average Record
Temperature  
Mean Temperature 29 °F 30 °F  
Max Temperature 37 °F 38 °F 60 °F (2002)
Min Temperature 20 °F 23 °F 3 °F (1989)
Degree Days  
Heating Degree Days 36 35  
Month to date heating degree days 951 892  
Since 1 July heating degree days 4127 4366  
Cooling Degree Days 0 0  
Month to date cooling degree days 0 0  
Year to date cooling degree days 0 0  
Moisture  
Dew Point 24 °F    
Average Humidity 74    
Maximum Humidity 88    
Minimum Humidity 59    
Precipitation  
Precipitation T in 0.08 in 0.80 in (2001)
Month to date precipitation 1.86 1.50  
Year to date precipitation 5.02 3.59  
Sea Level Pressure  
Sea Level Pressure 30.06 in    
Wind  
Wind Speed 6 mph (WNW)    
Max Wind Speed 12 mph    
Max Gust Speed 16 mph    
Visibility 10 miles    
Events Snow    
T = Trace of Precipitation, MM = Missing Value Source: NWS Daily Summary

Daily Weather History Graph

Daily Weather History Graph

Search for Another Location

Airport:

Trip Planner

Search our weather history database for the weather conditions in past years. The results will help you decide how hot, cold, wet, or windy it might be!

Date:

Astronomy

Feb. 24, 2013 Rise Set
Actual Time 7:27 AM EST 6:28 PM EST
Civil Twilight 6:59 AM EST 6:56 PM EST
Nautical Twilight 6:26 AM EST 7:29 PM EST
Astronomical Twilight 5:53 AM EST 8:02 PM EST
Moon 5:38 PM EST (2/24) 6:25 AM EST (2/24)
Length of Visible Light 11h 57m
Length of Day
11h 00m
Waxing Gibbous, 99% of the Moon is Illuminated
Feb 24
Waxing Gibbous
Feb 25
Full
Mar 4
Last Quarter
Mar 11
New
Mar 19
First Quarter

Hourly Weather History & Observations

Time (EST) Temp. Windchill Dew Point Humidity Pressure Visibility Wind Dir Wind Speed Gust Speed Precip Events Conditions
12:53 AM 30.0 °F 21.7 °F 19.9 °F 66% 29.92 in 10.0 mi West 9.2 mph - 0.00 in   Overcast
1:22 AM 30.2 °F 21.9 °F 19.4 °F 64% 29.90 in 10.0 mi West 9.2 mph - N/A   Overcast
1:53 AM 30.0 °F 21.1 °F 21.0 °F 69% 29.94 in 8.0 mi West 10.4 mph - 0.00 in Snow Light Snow
2:08 AM 30.2 °F 22.6 °F 21.2 °F 69% 29.91 in 10.0 mi West 8.1 mph - 0.00 in   Overcast
2:53 AM 30.9 °F 23.5 °F 21.0 °F 67% 29.95 in 10.0 mi West 8.1 mph - 0.00 in   Overcast
3:53 AM 30.9 °F 22.8 °F 21.9 °F 69% 29.95 in 10.0 mi West 9.2 mph - N/A   Overcast
4:53 AM 30.9 °F 25.2 °F 21.0 °F 67% 29.96 in 10.0 mi WNW 5.8 mph - N/A   Overcast
5:53 AM 30.9 °F 23.5 °F 21.9 °F 69% 29.97 in 10.0 mi West 8.1 mph - N/A   Overcast
7:53 AM 32.0 °F 25.6 °F 25.0 °F 75% 30.01 in 10.0 mi West 6.9 mph - N/A   Overcast
8:53 AM 33.1 °F 27.7 °F 27.0 °F 78% 30.03 in 8.0 mi West 5.8 mph - 0.00 in   Overcast
9:20 AM 33.8 °F 29.6 °F 26.6 °F 75% 30.02 in 10.0 mi West 4.6 mph - N/A   Overcast
9:40 AM 35.6 °F 31.7 °F 26.6 °F 70% 30.02 in 10.0 mi NW 4.6 mph - 0.01 in   Overcast
9:53 AM 35.1 °F 30.1 °F 27.0 °F 72% 30.05 in 10.0 mi WNW 5.8 mph - 0.01 in   Overcast
10:28 AM 35.6 °F 29.2 °F 26.6 °F 70% 30.04 in 10.0 mi NW 8.1 mph - 0.04 in   Overcast
10:53 AM 36.0 °F 29.0 °F 26.1 °F 67% 30.07 in 10.0 mi WNW 9.2 mph - 0.06 in   Overcast
11:06 AM 35.6 °F 28.6 °F 26.6 °F 70% 30.04 in 10.0 mi NW 9.2 mph - N/A   Overcast
11:53 AM 37.0 °F 31.0 °F 26.1 °F 65% 30.08 in 10.0 mi WNW 8.1 mph - 0.06 in   Overcast
12:46 PM 35.6 °F 29.9 °F 24.8 °F 65% 30.07 in 10.0 mi WNW 6.9 mph - N/A   Overcast
12:53 PM 36.0 °F 29.6 °F 26.1 °F 67% 30.09 in 10.0 mi WNW 8.1 mph - N/A   Overcast
1:53 PM 37.0 °F 31.0 °F 25.0 °F 62% 30.09 in 10.0 mi WNW 8.1 mph - N/A   Partly Cloudy
2:53 PM 37.0 °F 30.4 °F 25.0 °F 62% 30.10 in 10.0 mi WNW 9.2 mph - N/A   Clear
3:53 PM 37.0 °F 30.4 °F 26.1 °F 65% 30.11 in 10.0 mi West 9.2 mph - N/A   Scattered Clouds
4:01 PM 35.6 °F 29.2 °F 24.8 °F 65% 30.09 in 10.0 mi West 8.1 mph - N/A   Mostly Cloudy
4:53 PM 36.0 °F 30.3 °F 25.0 °F 64% 30.12 in 10.0 mi West 6.9 mph - N/A   Scattered Clouds
5:05 PM 35.6 °F 31.7 °F 24.8 °F 65% 30.10 in 10.0 mi WNW 4.6 mph - N/A   Mostly Cloudy
5:33 PM 35.6 °F 31.7 °F 24.8 °F 65% 30.10 in 10.0 mi WNW 4.6 mph - N/A   Scattered Clouds
5:53 PM 34.0 °F 31.0 °F 24.1 °F 67% 30.13 in 10.0 mi West 3.5 mph - N/A   Partly Cloudy
6:53 PM 33.1 °F - 24.1 °F 70% 30.14 in 10.0 mi Calm Calm - N/A   Scattered Clouds
7:53 PM 30.9 °F - 24.1 °F 76% 30.16 in 10.0 mi Calm Calm - N/A   Scattered Clouds
8:53 PM 27.0 °F - 21.9 °F 81% 30.17 in 10.0 mi Calm Calm - N/A   Clear
9:53 PM 26.1 °F - 21.0 °F 81% 30.17 in 9.0 mi Calm Calm - N/A   Clear
10:53 PM 23.0 °F - 19.0 °F 85% 30.18 in 5.0 mi Calm Calm - N/A   Clear
11:53 PM 21.0 °F 16.2 °F 16.0 °F 81% 30.17 in 6.0 mi East 3.5 mph - N/A   Haze